Wind_Speed
14 13 13 14 14 15 15 16 17 18 18 18 18 18 17 17 16 14 13 11 11 11 10 9 9 8 8 8 9 9 8 8 8 7 7 7 7 7 7 7 7 7 7 7 8 7 7 7 7 7 7 8 8 8 8 8 8 8 9 8 9 9 10 10 9 9 10 10 8 6 7 8 8 8 9 9 9 9 10 10 10 11 11 12 12
18 16 15 15 15 15 15 15 16 17 18 18 18 18 18 18 17 16 14 13 12 11 10 10 9 9 8 8 8 9 9 8 8 8 8 8 7 7 7 7 6 6 6 7 7 8 8 8 8 8 8 9 8 8 8 8 8 9 8 8 9 10 11 11 11 10 11 11 9 8 8 9 9 9 9 10 10 10 11 11 11 11 11 11 11
19 19 18 18 18 17 17 16 16 17 18 18 19 19 19 19 18 18 16 14 12 12 11 10 9 9 9 9 9 9 9 9 9 9 9 9 8 8 8 8 7 6 6 6 6 6 7 7 8 8 9 9 9 9 9 9 9 9 8 8 9 10 11 12 12 11 11 11 11 10 10 9 10 10 10 10 11 11 11 12 12 12 11 11 11
22 22 20 20 19 19 19 18 17 18 19 19 20 20 20 20 20 19 18 16 14 13 12 11 10 10 10 10 9 9 10 10 10 10 10 10 10 10 9 9 9 8 7 6 6 6 6 6 7 7 8 9 9 9 9 9 9 9 9 9 9 10 11 11 12 12 12 12 12 12 11 10 11 12 11 11 11 12 12 12 11 11 10 11 12
24 23 21 21 21 20 21 20 19 19 20 21 21 21 21 21 20 20 19 18 16 14 13 12 12 12 11 10 10 10 10 10 11 11 11 11 11 11 11 11 11 10 9 8 7 7 6 6 6 6 7 8 9 10 10 10 10 10 10 9 9 9 10 11 11 11 12 12 12 11 11 11 11 12 11 10 10 11 11 10 10 11 11 13 14
25 23 21 22 23 24 24 23 21 19 20 21 22 22 22 21 20 20 19 18 17 15 14 13 13 13 12 11 11 10 10 10 11 11 11 12 12 12 12 11 12 12 11 11 10 9 8 8 7 7 7 8 8 9 9 10 10 10 10 9 9 9 10 10 10 10 11 11 11 10 10 10 10 11 9 7 8 9 10 10 11 13 14 14 16
27 26 24 24 24 25 25 26 24 21 20 21 22 22 22 21 20 19 19 18 17 17 15 15 15 14 14 13 12 11 11 11 11 11 11 11 11 11 11 11 11 12 12 12 12 12 11 10 10 9 9 9 9 9 9 9 10 10 9 9 9 9 9 9 9 9 10 9 9 9 9 8 8 9 8 7 8 10 11 12 14 15 15 15 16
27 28 26 25 24 23 24 25 25 23 21 22 24 24 23 22 21 21 20 19 18 17 17 16 16 15 15 15 14 13 12 12 12 11 10 10 10 10 11 11 11 11 11 12 13 13 13 13 12 12 12 11 11 11 11 11 11 10 10 9 9 9 9 9 9 9 9 9 9 8 8 8 9 10 10 10 11 12 12 12 14 15 15 15 16
26 26 25 25 24 24 25 25 24 23 23 24 26 26 24 22 21 20 19 20 19 19 18 17 16 16 16 16 15 15 14 14 13 12 11 10 10 10 10 10 10 10 11 12 12 13 14 14 15 15 14 14 14 14 14 13 13 13 12 12 11 11 10 10 10 10 10 10 11 11 11 11 12 12 13 13 12 12 12 12 13 15 15 15 17
26 25 24 24 24 25 26 26 26 25 24 24 25 26 25 23 21 19 20 21 21 22 22 20 18 17 17 17 17 16 16 16 16 14 13 12 11 10 10 10 10 10 10 11 12 12 13 14 15 16 16 16 16 15 15 15 16 16 15 15 15 14 13 13 13 13 13 13 14 14 14 14 14 13 13 13 12 11 12 12 13 14 15 15 17
22 24 24 24 24 25 27 27 27 27 26 24 24 24 23 22 22 22 23 24 24 24 24 23 21 19 18 18 18 18 19 19 19 17 16 14 13 13 12 11 11 11 11 11 12 12 13 13 14 15 16 18 18 18 17 17 17 17 17 17 18 17 17 16 16 16 16 16 16 16 16 15 14 13 13 12 12 12 13 13 14 14 14 15 17
18 20 21 22 23 25 27 29 30 30 29 27 25 24 24 24 25 25 25 26 27 26 24 23 23 22 21 20 20 20 22 22 22 20 19 18 17 16 15 14 14 13 13 13 13 13 13 14 14 14 15 17 18 19 19 19 19 19 19 19 19 18 18 18 18 18 18 18 18 17 17 16 15 14 13 13 13 13 14 15 14 14 14 15 17
21 20 19 19 21 22 25 28 29 31 32 31 29 27 26 27 28 28 28 28 28 27 26 24 23 23 24 23 23 23 24 24 24 23 22 21 20 19 18 17 16 16 15 15 15 15 15 15 15 16 16 16 17 18 19 20 21 20 20 20 19 19 19 19 19 19 18 18 18 18 17 16 16 16 15 14 14 15 15 16 16 15 16 16 18
23 24 22 19 19 21 23 26 28 30 33 33 32 30 29 29 30 30 30 30 29 28 27 26 26 26 26 26 26 26 26 26 26 25 25 24 24 23 21 20 19 18 17 17 17 17 16 16 16 17 17 17 17 17 18 19 20 20 20 20 20 20 20 19 19 19 19 18 19 19 19 17 17 18 17 16 16 17 18 18 18 18 18 19 19
23 24 24 22 20 20 22 25 28 30 32 33 32 31 30 29 30 30 31 32 31 30 28 27 28 28 28 28 27 26 26 26 26 26 27 27 27 26 24 23 21 20 19 18 18 18 18 17 17 17 18 18 19 19 19 19 19 18 19 19 20 20 19 20 20 20 20 19 19 20 20 19 18 19 20 19 19 20 20 20 21 21 21 21 21
26 25 25 24 23 23 23 25 27 29 31 32 32 30 29 28 28 28 29 31 32 32 32 31 30 30 30 29 28 27 26 26 26 28 29 30 30 29 27 25 23 22 20 20 19 19 19 18 18 18 18 19 20 21 21 21 20 19 19 19 19 19 19 20 21 21 21 21 21 21 21 21 21 21 22 22 22 22 22 21 22 24 23 22 22
30 30 29 27 26 26 26 27 27 28 29 30 31 30 29 29 28 28 29 30 31 33 34 34 33 33 32 30 29 27 26 27 29 31 32 32 32 30 29 27 26 25 23 23 22 21 21 20 20 19 19 20 22 22 23 23 22 22 22 21 20 19 19 21 23 22 22 23 22 22 22 23 23 23 24 25 25 25 24 23 25 26 26 24 25
32 32 32 32 30 29 29 29 28 29 29 29 29 29 29 30 30 30 31 31 31 33 35 36 35 34 33 32 30 29 29 30 33 33 33 33 31 30 30 30 29 28 27 27 26 25 24 23 23 22 22 22 23 24 24 24 23 23 24 24 23 20 21 25 27 26 25 25 24 24 24 24 25 26 26 27 28 28 26 26 28 29 28 28 29
35 34 34 34 33 32 30 30 30 30 30 30 29 29 29 28 29 30 31 32 32 33 35 35 35 35 34 32 31 32 33 34 35 34 34 34 33 32 32 31 31 30 30 30 29 28 26 26 25 25 24 25 26 26 26 25 24 24 24 25 23 22 25 29 30 29 28 28 27 27 27 27 27 28 28 29 30 31 29 29 30 32 31 31 32
37 36 36 35 35 34 33 31 31 31 31 31 31 30 29 28 27 29 30 31 32 33 34 35 35 35 36 35 34 34 36 37 37 37 36 36 36 35 34 33 32 33 32 32 31 29 27 27 26 26 27 27 28 28 28 27 26 26 26 25 23 24 28 32 32 31 31 30 29 29 28 29 30 30 31 32 33 34 33 32 33 34 33 32 33
38 38 38 37 36 36 35 33 32 31 32 33 33 31 30 28 28 29 29 29 30 31 33 35 36 37 38 38 37 37 37 38 39 39 39 38 37 36 35 34 34 34 34 33 32 31 30 29 28 28 29 29 29 30 30 30 29 29 28 26 25 26 29 31 32 33 33 32 31 31 30 30 31 32 33 34 35 36 36 35 35 36 35 34 34
38 38 38 38 38 37 37 36 34 33 33 34 34 33 32 30 30 30 31 31 31 31 32 34 36 38 39 38 38 38 38 38 39 41 40 39 38 37 36 35 35 35 35 34 33 32 32 32 31 31 32 32 32 32 32 33 33 31 30 29 30 30 30 31 31 33 33 33 32 32 31 32 33 34 35 36 36 37 37 37 37 37 38 37 37
40 39 38 38 39 39 38 38 37 36 36 36 36 35 35 34 33 32 33 33 33 33 33 33 34 37 38 37 38 38 39 39 40 42 42 41 39 38 37 37 37 37 36 35 34 34 33 33 33 33 34 33 33 34 35 35 35 34 33 33 33 33 33 32 32 33 33 33 33 32 32 33 34 35 35 36 37 38 38 38 39 40 40 40 40
42 41 40 40 40 40 40 40 40 40 39 39 38 38 38 37 37 36 35 35 35 35 35 34 34 35 35 36 38 39 40 41 41 42 43 43 42 40 39 39 39 38 37 37 36 36 35 35 35 35 35 34 34 35 35 36 36 36 35 35 35 35 36 35 34 35 34 34 34 33 33 34 35 35 35 36 37 37 38 38 39 41 41 41 42
44 44 43 43 43 43 43 43 43 43 42 41 41 41 40 40 40 40 39 38 38 38 37 37 36 35 35 36 38 39 40 40 41 43 44 44 43 42 40 40 41 41 40 39 38 37 36 36 36 36 35 35 35 35 36 36 36 36 37 37 37 37 38 38 38 37 36 35 35 35 35 36 37 37 37 37 37 37 38 39 40 41 42 43 43
46 46 46 46 45 45 46 46 46 46 45 45 44 44 43 43 43 42 42 41 41 41 40 40 39 37 37 37 38 39 40 40 40 42 44 45 45 43 42 41 42 42 42 41 40 39 38 38 38 37 37 36 36 36 36 37 37 37 38 39 39 39 40 40 40 40 39 38 38 38 38 39 40 40 40 39 39 39 40 41 42 42 44 45 44
49 49 49 48 48 47 47 47 48 48 48 48 48 47 47 46 46 46 45 44 44 43 43 43 42 40 39 39 39 40 41 41 41 42 44 45 45 44 42 42 42 43 43 43 42 40 39 39 38 38 38 38 38 38 37 38 38 39 39 40 40 40 41 42 42 42 41 41 41 41 42 42 43 43 43 43 42 41 42 45 45 44 45 47 45
52 52 52 52 51 50 49 48 48 49 49 49 50 50 50 49 49 49 48 47 47 46 46 46 46 45 43 41 41 41 42 42 42 42 43 45 45 43 41 40 39 39 41 42 41 39 38 38 37 37 37 38 38 38 38 38 39 40 41 42 42 43 43 43 43 43 43 43 44 45 45 45 45 45 45 45 44 44 45 46 46 45 46 47 45
53 53 54 54 54 53 52 51 50 50 50 50 50 50 51 52 52 51 51 51 50 49 49 49 49 48 47 45 44 44 44 43 43 43 43 44 44 43 41 39 38 38 38 38 38 37 36 36 36 36 36 37 37 37 37 37 38 40 41 43 43 44 44 45 44 44 44 46 46 46 46 47 47 47 47 46 46 46 47 47 46 45 46 46 45
53 54 54 55 55 54 54 53 52 52 51 51 51 51 51 52 53 53 53 54 53 53 52 52 52 52 51 50 49 48 47 47 46 45 45 45 44 43 42 42 41 40 39 38 37 36 35 34 35 35 36 37 37 37 37 38 38 39 39 40 41 42 43 44 44 45 46 48 48 48 47 47 47 47 48 47 47 47 48 48 47 46 46 46 45
52 53 54 54 55 55 55 54 54 53 53 52 52 52 52 52 54 54 54 54 55 56 55 55 55 55 55 54 53 53 52 51 50 49 49 49 48 47 46 46 45 44 42 41 40 38 37 37 36 36 37 37 36 37 38 39 39 39 39 39 38 39 40 41 43 45 46 46 47 48 48 48 47 47 46 46 47 47 48 49 48 47 47 48 47
52 52 53 54 55 56 56 56 55 54 54 54 53 53 53 53 53 54 55 55 56 57 58 58 57 57 57 57 57 57 56 55 55 54 54 54 54 53 52 52 51 50 48 46 44 44 43 42 41 40 40 39 38 38 39 40 40 39 38 38 38 38 38 39 41 43 43 43 45 46 47 48 48 48 47 47 47 47 47 48 48 48 48 48 48
52 53 53 54 54 55 56 56 56 55 55 54 54 54 54 54 54 55 55 56 56 57 58 59 60 60 60 60 59 60 60 59 59 59 59 59 59 58 58 57 56 56 55 53 51 50 49 47 46 45 45 44 43 42 41 41 42 41 40 39 38 38 39 40 41 40 39 39 41 41 42 44 46 47 46 47 47 47 47 47 48 49 48 48 48
51 52 53 54 55 55 56 56 57 57 56 56 56 55 55 55 56 56 56 56 57 57 58 60 61 61 62 62 61 61 62 62 62 61 61 61 62 62 61 61 60 60 59 59 57 56 54 53 51 49 49 48 48 47 46 45 44 44 43 42 40 39 40 41 41 41 40 40 40 40 41 42 44 44 43 43 44 45 45 46 48 49 49 48 48
49 50 51 52 53 54 56 57 57 58 58 58 57 57 56 56 57 57 58 58 58 58 59 60 61 62 62 62 63 63 63 63 64 64 64 63 63 63 63 63 62 62 61 61 61 60 59 57 56 54 53 52 52 52 51 49 48 47 46 45 44 43 43 43 43 42 42 43 42 43 44 45 44 44 43 42 42 43 45 47 49 51 51 50 50
48 48 49 50 51 53 54 56 57 57 58 58 58 58 58 58 58 58 59 59 59 60 60 61 61 62 63 63 63 63 64 64 65 65 66 66 65 65 64 64 63 63 63 62 62 62 62 61 60 58 57 56 55 55 55 54 52 50 49 48 47 46 46 46 46 46 45 45 44 44 45 44 43 42 42 42 42 43 45 48 50 52 53 53 52
48 49 49 50 50 51 52 54 55 56 57 58 58 59 59 59 59 59 59 59 60 60 61 62 63 64 64 64 64 64 64 65 65 65 66 67 68 68 67 66 65 64 63 63 63 63 63 63 62 61 60 59 58 57 56 56 55 53 52 51 50 50 49 48 48 49 49 48 47 46 45 45 43 42 42 42 42 44 46 48 51 53 54 54 53
50 50 50 50 50 51 52 53 53 55 56 56 57 58 58 59 60 60 61 61 61 61 61 62 63 64 66 66 66 65 65 65 65 66 66 67 69 69 69 69 68 66 65 64 64 64 64 64 63 63 62 60 59 58 57 56 55 54 53 53 52 52 51 51 51 51 51 50 50 48 48 47 46 45 45 44 43 45 47 49 51 52 52 52 51
51 51 51 51 51 51 52 53 54 54 55 56 56 57 58 58 59 60 61 62 63 63 63 63 64 64 66 67 68 68 67 67 66 66 66 67 68 70 70 70 70 69 67 66 66 65 65 64 63 63 62 61 59 58 57 57 56 55 54 53 53 53 53 52 52 52 52 52 51 50 49 49 48 48 48 46 45 46 48 49 50 50 49 47 45
52 52 52 53 54 54 55 55 56 56 57 57 58 58 59 59 59 60 61 62 63 64 65 66 66 66 67 67 68 69 69 69 68 68 68 68 68 70 70 71 71 71 70 69 68 67 67 65 64 64 63 62 60 59 58 58 57 56 55 54 53 53 53 53 53 53 53 53 52 51 50 50 49 49 49 48 47 47 48 48 49 49 47 44 43
52 53 54 55 56 57 58 58 59 59 60 60 61 61 61 62 62 62 62 63 63 64 65 67 68 69 69 69 69 69 69 70 70 70 70 70 70 71 71 71 72 71 71 71 70 69 68 67 66 65 64 64 62 61 60 59 58 58 57 56 55 54 53 53 53 53 54 54 53 53 52 51 50 50 50 49 48 47 47 48 48 48 47 46 45
53 54 56 57 58 58 59 59 60 61 61 62 63 64 64 65 66 66 66 66 66 66 66 67 68 69 71 72 72 72 71 71 71 71 72 72 72 72 73 73 73 72 71 71 71 71 70 69 68 67 66 66 65 64 62 61 60 60 59 58 56 55 55 55 54 54 54 54 54 54 53 52 51 51 50 49 49 48 47 48 48 49 49 48 47
54 55 56 57 58 59 60 60 61 62 62 63 64 65 67 68 68 69 69 69 69 69 69 68 68 69 70 72 73 74 74 73 72 72 72 72 72 73 75 75 75 74 73 72 72 72 71 70 69 69 68 67 67 66 65 64 63 62 61 60 59 57 56 56 56 55 55 54 54 54 55 54 53 52 51 50 50 49 48 48 48 49 50 50 49
53 54 54 54 55 56 57 58 59 60 61 62 63 64 65 66 67 67 68 69 70 70 70 70 70 70 70 71 72 74 75 75 75 75 74 73 73 74 75 76 76 76 76 75 74 73 72 71 71 70 70 69 68 68 67 66 65 64 63 62 61 60 59 58 57 56 56 55 54 54 55 55 55 54 52 51 51 51 50 49 49 50 51 51 51
49 50 50 51 52 53 53 54 56 57 58 59 61 62 63 64 64 65 66 67 68 69 69 70 70 70 71 71 71 72 74 75 76 76 76 76 75 75 75 76 76 77 77 76 76 75 74 73 72 72 71 71 70 69 69 68 67 66 65 64 64 63 61 60 59 58 57 57 55 54 54 55 55 55 54 53 53 52 51 51 51 51 52 53 54
47 48 49 50 51 52 53 55 56 57 58 59 60 61 62 63 63 64 64 64 65 65 66 67 68 69 69 70 71 72 73 74 75 76 77 77 77 76 76 76 76 76 77 77 77 76 76 75 74 73 73 72 72 71 71 70 69 68 67 67 65 65 64 63 62 61 60 59 58 56 55 55 55 56 56 55 54 54 53 52 52 53 53 54 55
48 49 50 51 53 54 55 56 57 58 59 59 60 60 61 61 62 62 62 62 62 62 63 63 64 65 66 67 69 70 71 72 73 74 75 76 76 76 76 76 76 77 77 77 77 77 77 76 75 75 74 74 73 73 73 72 71 70 69 69 67 66 66 65 64 63 62 61 60 59 58 57 56 57 57 57 56 56 55 55 54 54 54 55 55
50 50 51 52 53 54 55 56 57 58 59 59 59 59 59 59 59 60 60 61 61 61 61 62 62 63 64 65 66 67 69 70 71 72 74 74 75 75 75 76 76 77 77 77 77 77 77 77 76 76 76 75 75 74 74 74 73 72 71 70 69 68 67 66 66 65 65 63 62 61 61 60 59 58 58 58 58 57 57 56 56 56 55 55 55
49 50 51 51 53 54 55 56 57 57 58 58 58 58 58 58 58 58 59 60 61 61 61 62 62 63 63 63 64 65 67 68 69 70 71 72 73 74 74 74 75 76 76 77 77 77 77 77 77 77 76 76 76 76 75 75 75 74 73 73 72 71 70 69 68 67 66 65 64 63 63 63 62 61 60 60 60 60 59 58 58 57 57 57 56
48 50 51 53 54 55 55 55 55 56 56 56 57 58 58 58 59 59 59 59 59 60 60 61 61 62 62 62 62 63 64 66 67 68 69 70 71 72 73 73 74 74 75 75 76 76 77 77 77 77 77 76 76 76 76 76 76 75 75 74 74 73 72 71 70 69 68 67 66 66 65 65 64 64 63 62 62 62 61 61 60 59 59 58 58
49 50 51 52 52 52 53 53 54 55 56 57 58 59 59 59 59 59 58 57 56 56 56 57 57 58 58 59 59 60 61 62 63 65 66 68 69 70 71 72 73 73 74 74 74 75 75 76 76 76 77 77 76 76 77 77 77 76 76 76 75 75 74 74 73 72 71 70 69 68 68 67 66 66 66 65 64 64 63 63 62 61 61 60 60
Wind_Direction
206 209 213 215 217 216 213 209 208 207 206 204 201 199 198 196 195 194 193 191 189 189 189 190 193 194 194 191 188 188 191 195 197 198 202 203 202 203 206 211 214 214 213 212 212 214 218 219 213 207 204 202 195 189 189 189 192 203 212 214 211 210 213 220 221 216 223 236 239 230 234 247 256 262 268 274 280 286 290 293 298 302 308 314 318
202 202 207 213 218 221 220 217 214 212 212 211 208 205 204 203 202 202 201 196 194 194 195 199 203 204 207 208 205 199 197 199 202 203 206 208 208 207 206 211 215 217 213 208 209 212 215 219 222 218 213 213 211 203 198 197 197 206 215 218 218 218 219 226 230 224 227 241 250 243 244 254 263 267 269 275 282 288 294 299 305 309 314 318 320
206 205 206 209 215 220 221 219 217 217 217 216 215 212 210 209 209 210 209 204 201 200 201 206 212 214 214 216 217 212 205 204 206 207 209 211 214 212 209 210 214 218 218 213 210 213 214 214 218 220 218 219 222 218 212 208 205 209 216 223 225 225 226 229 235 235 235 244 255 258 259 263 269 275 279 283 289 294 299 303 309 313 317 318 317
208 210 211 210 213 220 222 219 217 217 218 217 217 217 215 213 213 216 216 213 209 206 207 212 218 222 222 220 220 219 213 208 207 209 211 212 214 215 212 211 214 217 218 219 218 217 218 216 215 216 216 219 224 225 224 222 218 216 217 224 228 230 233 235 238 242 242 244 251 258 264 265 269 277 284 288 293 298 301 304 310 314 315 314 313
210 212 215 213 214 219 224 223 220 219 220 218 216 216 217 216 216 218 220 220 218 213 211 216 220 225 227 226 224 221 218 212 208 208 211 213 215 215 214 212 213 216 217 216 217 216 217 218 215 214 214 217 222 225 225 227 228 227 225 226 229 232 238 242 244 247 248 249 253 257 262 265 269 277 284 289 293 296 298 304 309 310 310 310 309
216 216 216 215 217 220 222 223 222 222 227 228 222 216 216 216 217 219 223 225 226 222 217 218 223 227 228 228 228 225 221 218 213 209 210 213 215 216 216 214 213 215 217 217 216 215 215 215 213 213 214 214 218 222 225 227 231 235 236 235 234 234 239 245 247 249 252 255 258 260 263 267 272 279 285 290 292 294 299 307 307 303 303 303 303
219 220 219 217 218 218 218 220 220 220 227 236 235 226 218 216 215 216 219 224 230 233 229 224 224 227 229 229 229 228 225 223 220 217 213 213 215 218 220 219 218 218 219 218 219 218 216 216 215 215 215 212 213 217 221 225 229 233 237 238 238 237 240 244 246 249 253 256 260 260 261 263 267 277 286 289 288 291 297 300 298 297 299 299 300
220 221 221 220 218 217 219 221 218 217 222 234 241 236 227 220 216 215 215 216 223 231 235 235 231 229 229 231 232 230 228 226 225 224 221 216 216 217 220 222 223 224 225 224 224 223 222 221 220 219 219 219 218 218 219 222 226 229 231 234 237 239 241 243 243 246 250 254 259 261 263 265 267 275 284 288 289 290 291 290 288 291 297 299 301
222 223 225 226 225 225 228 228 223 221 221 227 237 240 235 228 222 220 220 219 219 223 229 235 238 237 234 233 235 235 234 232 230 228 226 223 219 217 217 219 221 223 228 231 231 229 227 226 225 225 225 225 226 226 226 226 228 231 233 235 238 241 244 246 247 250 253 256 262 266 269 271 275 279 284 287 288 287 286 284 283 289 297 299 303
222 225 229 233 234 233 233 233 232 230 225 223 230 235 234 231 227 224 224 223 223 222 222 224 229 235 238 238 238 239 240 239 236 232 231 228 226 222 218 218 219 221 225 230 235 236 234 232 230 229 229 229 230 231 232 233 234 236 237 239 242 245 248 250 252 254 256 258 262 266 269 272 276 279 281 282 282 280 280 282 284 290 296 297 300
226 226 228 232 234 233 233 233 233 230 223 221 226 230 230 231 230 228 226 225 224 223 224 223 222 222 226 232 236 240 242 242 239 235 234 232 230 228 223 219 219 221 223 227 233 238 239 239 236 234 232 232 233 234 235 236 237 238 239 240 243 246 248 250 252 254 256 258 261 264 266 268 270 272 273 274 275 273 275 279 283 287 290 289 291
234 232 232 233 233 234 234 235 233 229 224 226 231 235 236 235 231 229 228 228 227 225 224 226 227 224 221 223 228 234 239 241 240 237 235 234 232 231 228 225 222 222 224 226 230 235 239 242 241 240 238 236 235 235 236 237 238 238 239 240 243 245 247 249 251 253 255 258 260 262 262 263 264 265 266 268 270 269 270 274 278 280 282 281 283
246 245 244 241 239 240 240 240 239 236 235 239 242 242 240 237 233 230 229 230 231 229 225 225 227 229 227 224 224 228 233 237 239 239 237 236 236 235 234 231 229 228 228 228 230 232 236 240 243 244 245 243 241 238 237 238 239 239 239 240 242 245 247 248 250 252 254 256 259 260 259 259 260 263 265 266 267 266 266 269 271 273 273 273 275
254 253 252 251 250 248 246 246 247 246 246 247 246 244 242 238 233 231 232 231 230 230 228 226 225 226 229 230 228 228 231 234 237 238 239 239 238 237 237 236 235 234 234 234 235 237 238 240 244 247 250 252 251 249 245 243 242 242 242 242 243 244 245 248 250 251 252 253 256 258 257 254 255 260 264 263 263 265 267 269 270 270 269 269 272
254 255 254 255 256 254 250 248 249 252 253 251 247 245 243 237 232 232 234 233 232 231 230 229 227 225 226 231 233 234 235 236 238 240 241 241 240 238 238 239 239 240 240 241 242 244 246 247 250 253 255 257 258 258 257 254 250 248 247 246 245 245 246 248 250 252 253 252 251 253 254 253 253 258 262 263 262 264 266 268 270 270 269 270 271
251 253 255 255 254 254 253 250 249 250 253 254 250 246 242 236 231 232 234 235 236 235 232 230 230 229 227 228 232 236 239 241 243 243 243 244 243 241 238 238 240 242 245 247 248 250 252 254 255 257 259 261 261 261 262 262 261 258 255 252 250 249 250 251 251 250 251 250 248 249 251 254 255 257 261 263 264 265 266 267 268 268 268 269 270
251 251 252 253 254 253 253 253 251 248 250 252 252 250 245 240 234 233 234 236 239 240 236 232 232 232 232 231 230 232 237 241 243 244 244 244 245 246 244 241 238 239 241 244 246 247 250 252 253 255 258 260 263 263 264 265 266 266 265 262 259 257 257 258 257 253 251 249 248 248 251 254 257 259 262 264 265 266 267 267 267 268 269 269 269
254 252 251 251 252 253 254 254 252 249 249 250 251 251 250 247 241 237 237 239 242 242 238 235 234 234 235 236 235 234 235 238 241 244 246 246 246 246 247 246 244 241 240 240 241 242 244 246 248 250 252 254 257 260 262 263 264 266 267 267 267 266 263 261 260 258 256 255 252 251 252 253 257 259 262 264 265 265 265 266 266 268 270 271 271
255 254 253 251 251 252 252 253 252 250 250 251 250 250 251 251 247 243 241 242 244 243 239 235 235 235 236 239 240 238 237 239 241 242 244 246 247 245 245 245 246 245 243 243 243 244 245 248 250 251 252 254 255 256 258 259 260 261 262 263 265 265 264 263 263 262 261 260 258 257 256 257 258 260 262 263 264 265 264 264 265 267 269 271 273
254 255 254 254 253 252 252 252 252 251 251 252 252 250 248 248 247 245 243 243 245 246 242 238 238 239 241 242 242 240 240 241 243 243 242 244 246 246 246 245 245 246 245 244 244 245 246 248 250 253 255 257 259 260 261 261 261 260 260 260 259 257 258 262 265 266 265 265 264 263 263 263 263 263 264 264 266 267 266 265 266 267 269 270 273
253 254 255 255 255 255 254 253 252 252 252 253 255 255 252 251 250 250 249 247 248 249 247 244 245 247 248 246 243 241 241 242 243 244 245 244 244 245 247 247 247 247 247 246 246 245 244 243 244 246 249 252 256 260 262 263 262 261 262 262 260 257 257 260 263 265 267 268 269 269 269 269 269 269 269 269 269 269 270 270 270 270 271 272 273
256 255 256 256 256 256 256 255 254 252 251 251 253 254 255 255 254 253 254 253 253 252 251 249 248 250 252 251 247 243 243 242 242 243 245 247 246 246 246 247 249 250 251 251 250 249 248 246 245 245 245 247 250 254 257 260 262 262 262 261 260 259 258 260 262 265 267 268 267 267 268 268 268 270 271 272 273 273 274 275 276 276 276 277 278
260 259 258 258 258 259 258 257 255 253 251 249 249 249 251 252 252 252 252 253 253 253 253 252 251 251 253 253 252 249 246 243 242 243 244 246 247 247 248 248 249 251 252 253 253 252 252 252 251 251 250 250 251 252 254 257 260 262 262 262 262 261 261 260 260 261 263 264 265 266 266 266 266 266 268 270 272 274 276 277 278 278 279 280 283
258 259 259 259 260 260 260 260 258 256 254 251 249 247 247 248 249 249 250 251 252 253 253 253 253 254 254 254 254 253 250 246 243 243 244 245 245 246 248 249 250 251 252 252 253 254 254 254 255 255 256 256 256 256 256 258 259 261 262 263 263 264 265 264 262 261 260 261 262 263 264 264 265 265 266 267 269 271 274 275 277 278 279 281 283
255 256 257 258 258 259 260 261 261 260 258 256 254 251 248 247 247 248 248 248 250 252 254 254 254 254 255 256 256 255 252 249 247 246 246 245 244 245 246 248 250 251 252 252 251 252 253 254 254 255 256 258 261 262 263 263 263 262 262 261 262 263 264 265 265 265 264 263 263 262 261 261 262 262 262 264 266 269 271 273 274 275 277 278 279
254 255 255 256 256 257 258 260 261 261 261 260 259 256 253 250 249 248 248 247 248 250 253 254 254 254 254 255 256 255 254 252 251 250 249 248 247 247 247 247 247 247 249 250 250 250 251 252 252 252 253 255 258 261 262 263 264 264 263 262 262 262 263 264 265 266 266 266 265 264 262 261 261 261 261 262 263 265 268 269 271 272 274 276 277
255 255 255 255 255 255 256 257 258 259 260 260 260 259 257 255 253 251 250 248 248 249 251 253 255 255 254 253 254 254 254 254 254 254 251 250 249 248 247 245 244 245 246 248 249 249 250 251 252 253 254 255 257 259 260 260 261 263 264 265 265 264 264 264 265 266 267 267 266 265 264 263 263 263 263 263 264 265 266 268 270 273 276 278 282
256 256 256 256 255 255 255 255 256 256 257 257 257 258 258 258 256 255 253 251 249 248 248 250 252 254 253 253 253 253 253 254 254 253 251 249 248 247 246 247 248 248 248 249 250 250 251 253 255 255 256 257 258 259 260 261 261 262 263 264 265 265 266 266 267 268 268 268 268 267 267 266 266 266 266 266 267 267 268 269 272 275 277 280 284
256 257 257 258 258 257 256 255 255 255 255 255 254 254 255 256 257 257 256 255 253 251 249 249 250 251 251 252 252 252 253 252 252 250 249 248 247 246 247 249 251 253 253 251 251 252 253 254 256 258 258 259 260 261 261 261 262 262 263 264 265 266 267 268 269 270 270 269 270 270 270 270 269 269 268 268 268 269 269 270 272 274 275 278 281
256 256 257 258 259 259 258 258 257 256 255 255 254 253 253 253 254 255 255 256 256 255 253 252 250 250 250 250 250 250 251 252 252 251 251 250 250 250 251 251 252 253 254 254 253 254 255 256 258 259 260 260 261 262 262 262 262 263 264 265 266 267 267 268 269 269 269 269 271 272 273 273 273 272 270 269 269 270 271 272 273 274 275 277 279
255 256 256 257 258 259 259 259 258 258 256 256 255 254 253 253 253 253 253 253 255 255 255 254 253 252 251 251 251 250 249 249 250 251 252 252 253 254 254 255 255 255 255 255 256 257 257 258 259 260 261 261 262 263 263 264 264 265 265 267 268 268 267 267 267 267 268 270 272 273 273 274 274 273 273 272 272 272 272 273 274 275 277 278 280
254 254 255 256 256 257 259 259 259 259 258 257 256 255 254 253 252 252 251 251 251 252 253 254 254 254 253 252 252 252 251 250 249 250 251 252 253 254 254 255 256 256 256 256 256 257 258 258 259 261 262 263 263 263 264 264 265 266 266 267 268 268 267 266 265 267 269 270 271 272 273 274 274 274 273 273 273 273 273 273 274 275 277 279 280
254 254 254 255 255 256 257 258 259 259 259 259 258 257 256 254 252 252 251 250 250 250 251 252 252 253 253 253 253 253 253 252 251 251 251 252 253 254 254 255 255 256 257 257 257 258 259 259 260 261 262 264 265 265 265 265 265 265 265 265 266 266 267 266 265 266 268 269 270 270 272 274 275 275 274 272 272 272 272 272 273 273 275 276 276
255 255 255 255 256 256 256 256 257 257 257 258 258 258 258 257 256 254 253 252 250 250 250 251 251 251 252 252 253 253 254 255 254 254 253 253 254 254 255 256 256 256 257 258 259 259 260 260 261 261 261 262 264 265 265 265 265 265 265 264 264 264 264 265 265 264 265 265 267 269 272 275 277 278 275 273 271 270 270 271 272 273 273 273 273
257 257 257 257 257 257 257 257 257 257 257 257 257 257 257 257 257 257 256 255 254 252 251 250 250 251 251 251 252 252 253 254 255 256 255 255 255 255 256 256 257 257 257 258 259 260 260 261 261 261 261 262 263 265 265 265 265 265 265 265 264 264 264 265 265 265 265 264 265 268 271 275 278 279 276 273 271 271 271 272 273 273 273 273 273
258 259 259 259 259 259 258 258 258 258 258 257 257 257 256 256 256 256 257 257 256 255 254 253 252 251 251 250 251 251 252 252 253 255 256 257 256 256 256 256 256 257 258 258 259 259 260 260 261 261 262 262 263 264 265 264 264 264 264 264 264 264 263 264 265 266 266 266 267 269 271 273 276 277 276 274 273 273 273 273 274 274 275 275 275
260 261 261 261 261 261 260 260 260 260 260 259 259 258 258 257 256 256 256 256 256 255 255 255 255 254 253 251 250 250 251 251 251 252 254 256 257 257 257 257 257 257 257 258 258 259 259 260 261 261 262 262 263 264 264 264 263 263 262 263 263 263 263 263 263 264 265 266 267 268 269 271 272 272 272 273 273 273 273 273 272 273 274 276 277
261 262 262 262 262 262 262 262 262 262 262 261 261 260 260 259 258 257 256 256 255 255 254 254 254 255 255 255 253 252 251 251 251 251 251 253 255 256 257 257 258 258 257 258 258 258 259 259 260 261 262 262 262 263 262 262 262 262 261 262 262 263 263 263 262 263 263 265 266 267 267 268 269 269 270 271 272 272 272 271 271 271 273 275 278
261 262 262 262 262 263 263 263 264 264 264 264 264 263 263 262 261 260 259 258 257 256 255 255 254 254 254 255 255 255 254 253 252 252 251 251 252 254 255 256 257 258 258 258 258 258 259 259 260 260 261 261 261 261 261 261 261 261 261 260 261 262 263 263 263 263 263 263 264 265 265 266 267 268 268 269 269 269 270 271 271 272 273 273 274
261 262 262 263 263 263 264 264 265 265 266 266 266 266 265 265 264 263 262 261 260 259 258 257 256 255 254 254 254 255 255 254 254 253 252 251 251 251 252 253 254 255 256 257 258 258 259 259 259 260 260 260 261 261 260 260 261 261 261 260 260 260 261 262 262 263 263 263 263 263 263 264 265 266 268 268 268 268 269 271 272 272 271 270 270
262 264 264 265 265 265 265 265 265 265 266 266 267 267 267 267 267 266 266 265 263 262 261 260 258 257 256 255 254 253 253 253 254 253 253 253 252 252 252 252 252 252 253 255 256 257 258 258 259 259 259 260 260 260 260 260 260 260 260 260 260 259 260 261 261 262 262 263 263 263 263 263 263 265 267 268 267 267 268 270 272 272 270 268 267
265 266 266 267 267 267 267 267 267 267 267 267 268 268 268 269 269 269 268 268 266 265 264 262 261 260 259 257 256 255 253 253 253 252 252 253 253 253 253 253 252 252 252 252 253 255 256 257 258 258 258 259 259 259 259 259 260 260 260 260 260 259 259 259 260 261 261 262 263 263 263 263 263 263 265 266 267 266 266 268 270 271 269 267 266
266 266 267 268 268 269 269 269 269 269 269 269 270 270 270 271 270 270 269 269 268 267 266 264 263 262 261 260 259 257 256 255 253 252 252 252 252 252 252 253 253 253 253 252 252 253 254 255 256 257 257 257 258 258 258 259 259 259 259 260 260 259 259 259 259 260 261 261 262 262 263 263 263 262 263 264 265 265 265 265 267 268 268 267 265
267 267 268 269 269 270 270 271 271 271 271 271 271 271 271 271 271 271 270 269 268 267 266 265 264 263 262 261 260 259 258 257 256 254 253 252 251 251 251 252 253 253 253 253 253 252 252 253 253 254 255 256 256 257 257 257 258 258 258 259 259 259 259 259 259 260 260 260 261 261 262 263 263 263 262 262 263 263 263 263 263 265 265 265 264
267 268 269 270 270 271 271 272 272 272 273 273 273 273 273 272 272 271 270 269 268 268 267 266 265 264 263 262 261 260 259 258 257 256 255 253 252 251 251 251 252 252 253 253 253 253 252 252 252 252 253 254 255 255 256 256 256 257 257 258 258 259 259 259 259 260 260 261 261 261 261 262 263 263 262 261 261 262 262 262 262 263 263 263 264
267 268 269 270 271 272 272 273 273 273 274 274 274 274 274 274 273 272 271 270 269 267 266 265 265 264 263 262 261 260 259 258 257 256 256 255 254 253 252 251 251 252 252 252 252 252 252 252 252 252 252 252 253 254 254 255 255 256 256 257 257 258 258 259 259 259 260 260 261 261 262 262 262 263 263 263 262 262 262 262 262 262 263 263 264
267 268 270 270 271 272 273 273 274 274 274 274 275 274 274 274 274 273 272 271 269 268 266 265 265 264 263 261 260 259 258 257 256 255 255 254 254 253 253 252 252 251 251 251 251 251 251 251 251 251 251 251 252 252 253 254 254 254 255 256 256 257 257 258 258 258 259 259 260 261 261 262 262 262 263 263 263 262 262 262 262 262 263 263 264
269 270 271 271 272 272 273 273 274 275 275 275 275 275 274 274 273 272 271 271 270 268 267 265 264 263 263 262 260 259 258 256 255 254 253 253 252 252 251 251 251 251 250 250 250 250 250 250 250 250 250 250 250 251 252 252 253 253 254 254 255 255 256 256 257 257 258 258 259 259 260 261 261 261 262 263 263 263 263 262 262 262 262 263 264
270 271 271 272 272 273 274 274 275 276 276 276 276 276 275 274 274 273 272 271 269 268 267 266 265 264 263 262 261 260 259 257 256 254 253 252 251 250 249 249 248 249 249 249 249 249 249 249 249 249 249 249 249 249 250 251 251 252 253 253 253 254 255 255 255 256 256 257 258 258 259 260 260 261 261 262 262 263 263 263 263 263 263 263 263
271 271 272 273 274 274 275 275 275 276 276 276 277 277 277 277 276 275 273 272 271 269 268 266 265 264 263 262 261 260 260 259 257 255 253 252 250 249 247 246 246 246 247 247 247 248 248 248 248 248 248 247 247 248 248 249 250 250 251 252 252 253 253 254 254 255 255 256 256 257 257 258 259 260 260 261 262 262 263 263 263 263 263 263 263
272 273 273 274 275 275 275 276 276 277 277 278 278 278 278 278 278 277 275 273 271 269 266 265 264 264 263 263 263 262 261 260 259 257 255 253 251 249 247 246 245 245 245 245 246 246 247 247 247 247 247 247 246 246 246 247 248 248 249 250 251 251 252 253 253 254 254 255 255 255 256 257 257 259 260 260 261 261 262 263 263 264 264 265 265
Height
5942 5944 5945 5946 5947 5948 5950 5951 5953 5954 5955 5956 5956 5957 5958 5959 5960 5961 5962 5964 5965 5966 5967 5968 5969 5969 5969 5970 5970 5970 5971 5971 5971 5971 5972 5972 5972 5973 5973 5973 5974 5974 5975 5975 5976 5976 5977 5977 5978 5978 5979 5979 5979 5979 5980 5980 5980 5980 5980 5981 5981 5981 5981 5982 5982 5982 5982 5982 5982 5982 5982 5982 5981 5981 5981 5980 5980 5980 5979 5979 5979 5979 5978 5978 5977
5940 5941 5943 5945 5946 5947 5949 5950 5952 5954 5955 5956 5956 5957 5957 5958 5959 5960 5961 5962 5964 5965 5966 5967 5968 5969 5969 5969 5969 5969 5969 5970 5970 5970 5971 5971 5971 5972 5972 5972 5973 5973 5974 5974 5975 5975 5976 5976 5977 5977 5978 5978 5978 5979 5979 5979 5979 5980 5980 5980 5980 5981 5981 5981 5981 5981 5981 5981 5981 5981 5981 5981 5980 5980 5980 5980 5979 5979 5979 5979 5978 5978 5977 5977 5976
5939 5939 5940 5942 5944 5946 5947 5949 5951 5952 5954 5955 5955 5956 5956 5957 5958 5959 5960 5961 5962 5964 5965 5966 5967 5968 5968 5969 5969 5968 5968 5968 5969 5969 5969 5970 5970 5970 5971 5971 5972 5972 5973 5973 5973 5974 5975 5975 5976 5976 5976 5977 5977 5978 5978 5978 5979 5979 5979 5979 5979 5980 5980 5980 5980 5980 5980 5980 5980 5980 5980 5980 5980 5979 5979 5979 5979 5979 5979 5978 5978 5977 5976 5976 5975
5937 5938 5939 5940 5942 5944 5946 5947 5948 5950 5952 5953 5954 5955 5955 5956 5957 5958 5959 5960 5961 5962 5964 5965 5966 5967 5968 5968 5968 5968 5968 5968 5968 5968 5968 5968 5969 5969 5970 5970 5971 5971 5972 5972 5972 5973 5973 5974 5974 5975 5975 5976 5976 5976 5977 5977 5978 5978 5978 5978 5978 5979 5979 5979 5979 5979 5979 5979 5979 5979 5979 5979 5979 5979 5979 5979 5978 5978 5978 5977 5977 5976 5976 5975 5974
5934 5936 5937 5939 5940 5942 5944 5945 5946 5947 5949 5951 5951 5952 5953 5954 5955 5957 5958 5959 5960 5961 5962 5964 5965 5966 5967 5968 5968 5968 5967 5967 5967 5967 5967 5967 5967 5968 5968 5969 5969 5970 5970 5971 5971 5972 5972 5973 5973 5974 5974 5974 5975 5975 5975 5976 5976 5977 5977 5977 5977 5978 5978 5978 5978 5978 5978 5978 5978 5978 5978 5978 5978 5978 5978 5978 5978 5977 5977 5976 5976 5975 5975 5974 5973
5933 5934 5935 5937 5937 5939 5941 5943 5945 5945 5947 5949 5950 5950 5951 5952 5953 5955 5957 5959 5960 5960 5961 5962 5963 5964 5966 5967 5967 5967 5967 5967 5966 5966 5966 5966 5966 5966 5967 5967 5968 5968 5969 5970 5970 5971 5971 5972 5972 5973 5973 5973 5974 5974 5974 5974 5975 5975 5976 5976 5976 5976 5977 5977 5977 5977 5977 5977 5977 5977 5977 5977 5977 5977 5977 5977 5977 5976 5976 5976 5975 5974 5974 5973 5972
5930 5931 5932 5934 5935 5936 5938 5940 5941 5942 5944 5948 5950 5950 5950 5950 5951 5953 5954 5957 5959 5960 5960 5960 5961 5962 5964 5965 5966 5966 5967 5966 5966 5966 5966 5965 5965 5965 5965 5966 5966 5967 5967 5968 5969 5970 5970 5971 5971 5972 5972 5972 5973 5973 5973 5973 5974 5974 5974 5975 5975 5975 5975 5975 5976 5976 5976 5976 5976 5976 5976 5976 5976 5976 5976 5976 5976 5976 5975 5975 5974 5973 5972 5972 5971
5927 5927 5928 5930 5933 5935 5937 5938 5939 5938 5940 5945 5948 5950 5950 5949 5950 5951 5952 5954 5956 5958 5959 5959 5959 5960 5961 5963 5964 5965 5965 5966 5966 5966 5965 5965 5965 5965 5965 5965 5965 5966 5966 5966 5967 5968 5969 5969 5970 5970 5971 5971 5971 5972 5972 5972 5972 5973 5973 5973 5974 5974 5974 5974 5975 5975 5975 5975 5975 5975 5975 5975 5975 5975 5975 5975 5975 5975 5974 5974 5973 5972 5972 5971 5970
5926 5927 5927 5928 5930 5933 5935 5937 5937 5937 5937 5940 5944 5947 5949 5949 5949 5950 5952 5952 5953 5954 5955 5957 5958 5959 5960 5961 5962 5963 5964 5964 5964 5965 5965 5965 5965 5965 5964 5964 5964 5965 5965 5965 5965 5966 5967 5967 5968 5968 5969 5970 5970 5970 5971 5971 5971 5971 5972 5972 5972 5973 5973 5973 5973 5974 5974 5974 5974 5974 5974 5974 5974 5974 5973 5973 5973 5973 5973 5972 5972 5971 5970 5970 5969
5923 5925 5926 5926 5928 5929 5931 5934 5936 5937 5937 5938 5940 5944 5946 5947 5947 5948 5949 5950 5950 5950 5951 5952 5954 5956 5957 5959 5960 5961 5962 5962 5963 5963 5964 5964 5965 5965 5964 5964 5963 5963 5963 5963 5964 5964 5965 5965 5966 5966 5967 5968 5968 5969 5969 5969 5969 5970 5970 5971 5971 5971 5972 5972 5972 5972 5972 5972 5972 5972 5973 5972 5972 5972 5972 5971 5971 5971 5970 5970 5970 5969 5969 5968 5967
5920 5922 5922 5923 5925 5927 5928 5931 5933 5935 5935 5936 5938 5940 5943 5944 5944 5944 5945 5946 5946 5947 5948 5949 5950 5951 5953 5955 5957 5959 5959 5960 5960 5961 5962 5963 5963 5964 5964 5963 5962 5962 5962 5962 5962 5962 5962 5963 5963 5964 5965 5965 5966 5967 5967 5967 5968 5968 5968 5969 5969 5970 5970 5970 5971 5971 5971 5971 5971 5971 5971 5971 5970 5970 5970 5969 5969 5969 5968 5968 5968 5967 5967 5967 5966
5918 5919 5920 5921 5923 5925 5927 5929 5931 5932 5933 5933 5934 5936 5938 5939 5940 5940 5941 5942 5943 5944 5946 5947 5948 5949 5949 5951 5953 5955 5956 5957 5958 5959 5960 5961 5961 5962 5962 5962 5961 5960 5960 5960 5960 5960 5960 5960 5961 5962 5962 5963 5963 5964 5965 5965 5965 5966 5966 5967 5967 5967 5968 5968 5969 5969 5969 5969 5969 5969 5969 5969 5969 5968 5968 5968 5967 5967 5966 5966 5966 5966 5965 5965 5964
5915 5916 5918 5919 5921 5922 5924 5926 5928 5929 5930 5930 5931 5933 5934 5935 5936 5937 5939 5939 5940 5942 5944 5945 5946 5947 5947 5947 5948 5949 5951 5953 5955 5957 5958 5959 5959 5960 5960 5960 5960 5959 5958 5958 5957 5957 5958 5958 5958 5959 5959 5960 5961 5962 5962 5963 5963 5964 5964 5964 5965 5965 5966 5966 5967 5967 5967 5967 5967 5967 5967 5967 5967 5966 5966 5966 5965 5965 5964 5964 5964 5964 5964 5963 5963
5913 5913 5914 5915 5917 5919 5920 5922 5924 5925 5925 5926 5928 5930 5931 5932 5933 5934 5936 5937 5938 5939 5940 5942 5943 5943 5943 5944 5944 5946 5948 5950 5952 5954 5955 5956 5956 5957 5957 5957 5957 5957 5957 5957 5956 5956 5956 5956 5957 5957 5958 5958 5959 5959 5960 5960 5961 5962 5962 5963 5963 5963 5964 5964 5964 5965 5965 5965 5965 5965 5965 5965 5965 5964 5964 5964 5964 5963 5962 5962 5962 5962 5961 5961 5961
5911 5912 5912 5913 5915 5916 5918 5919 5920 5921 5922 5922 5924 5926 5927 5928 5930 5932 5933 5934 5935 5936 5937 5939 5940 5940 5941 5941 5942 5943 5945 5948 5950 5951 5952 5952 5952 5953 5954 5954 5955 5955 5955 5955 5955 5955 5955 5956 5956 5956 5956 5957 5957 5957 5958 5958 5959 5960 5961 5961 5962 5962 5962 5962 5962 5962 5962 5963 5963 5963 5962 5963 5963 5963 5962 5962 5962 5961 5961 5961 5960 5959 5959 5959 5959
5909 5910 5911 5912 5913 5914 5916 5917 5918 5918 5919 5918 5919 5921 5924 5925 5926 5928 5930 5932 5933 5934 5935 5936 5936 5937 5938 5939 5941 5942 5944 5946 5947 5947 5947 5946 5947 5949 5951 5952 5953 5953 5954 5954 5954 5955 5955 5955 5955 5955 5955 5955 5955 5955 5956 5956 5957 5958 5958 5959 5960 5960 5961 5960 5960 5960 5960 5960 5960 5960 5960 5961 5961 5961 5960 5960 5960 5960 5960 5960 5959 5957 5957 5957 5956
5906 5907 5908 5909 5910 5911 5913 5914 5914 5915 5916 5916 5915 5916 5919 5922 5923 5925 5926 5928 5930 5931 5932 5933 5933 5934 5935 5937 5939 5941 5942 5942 5941 5941 5941 5942 5943 5946 5948 5950 5951 5951 5951 5951 5952 5952 5952 5952 5952 5952 5953 5953 5952 5953 5953 5954 5955 5955 5956 5956 5957 5958 5959 5957 5957 5957 5957 5957 5958 5958 5958 5958 5958 5958 5958 5958 5958 5957 5958 5958 5956 5954 5955 5955 5954
5901 5903 5904 5906 5907 5908 5909 5910 5911 5912 5913 5913 5912 5912 5915 5917 5920 5921 5922 5923 5924 5926 5928 5929 5930 5931 5932 5934 5936 5938 5939 5937 5936 5936 5936 5938 5940 5943 5945 5947 5948 5948 5948 5947 5948 5948 5948 5948 5948 5949 5949 5949 5949 5949 5950 5951 5952 5953 5953 5953 5954 5956 5956 5953 5952 5953 5954 5954 5955 5956 5956 5956 5956 5955 5955 5955 5954 5954 5955 5955 5953 5951 5952 5952 5950
5896 5898 5900 5901 5903 5904 5905 5906 5908 5909 5909 5909 5909 5910 5911 5913 5915 5917 5918 5919 5919 5921 5923 5925 5926 5928 5929 5930 5932 5933 5933 5932 5932 5934 5934 5934 5936 5938 5940 5942 5944 5945 5945 5945 5945 5945 5946 5946 5946 5946 5946 5945 5945 5946 5946 5947 5948 5949 5950 5950 5951 5952 5951 5948 5948 5949 5950 5950 5952 5952 5953 5953 5953 5952 5952 5951 5950 5950 5950 5951 5949 5948 5948 5948 5947
5892 5893 5895 5896 5898 5899 5901 5902 5904 5905 5905 5906 5906 5907 5908 5910 5911 5913 5914 5915 5916 5916 5918 5920 5922 5924 5925 5926 5928 5928 5928 5928 5929 5930 5930 5931 5932 5933 5935 5937 5939 5940 5941 5942 5942 5943 5943 5943 5943 5943 5943 5942 5942 5942 5943 5943 5944 5945 5946 5947 5948 5948 5946 5944 5944 5945 5945 5946 5947 5948 5949 5950 5949 5949 5949 5948 5947 5946 5946 5946 5945 5944 5944 5944 5944
5887 5888 5889 5891 5892 5893 5895 5897 5898 5900 5901 5901 5903 5904 5904 5905 5907 5908 5910 5912 5912 5913 5914 5916 5918 5919 5920 5921 5923 5923 5924 5925 5926 5926 5926 5928 5928 5929 5931 5933 5934 5935 5937 5938 5938 5939 5939 5939 5939 5938 5938 5938 5938 5938 5938 5939 5939 5940 5942 5943 5944 5943 5942 5941 5941 5941 5941 5943 5944 5944 5945 5945 5945 5945 5944 5944 5943 5942 5941 5942 5941 5940 5940 5940 5940
5881 5882 5884 5885 5886 5888 5889 5891 5893 5895 5896 5897 5899 5900 5901 5902 5903 5904 5906 5907 5908 5908 5909 5911 5912 5913 5914 5916 5917 5918 5920 5921 5922 5922 5922 5923 5925 5926 5928 5928 5929 5930 5932 5934 5934 5934 5934 5934 5934 5934 5934 5934 5934 5934 5934 5934 5934 5935 5937 5938 5938 5938 5938 5938 5938 5938 5938 5939 5940 5940 5940 5940 5940 5939 5939 5939 5938 5937 5937 5937 5937 5936 5936 5936 5936
5874 5876 5878 5880 5881 5882 5884 5885 5887 5889 5892 5894 5895 5896 5897 5898 5899 5900 5901 5902 5903 5904 5904 5905 5907 5908 5910 5911 5912 5914 5915 5917 5917 5918 5918 5919 5920 5921 5922 5923 5924 5926 5928 5930 5930 5930 5930 5930 5930 5930 5930 5930 5931 5931 5931 5931 5930 5931 5932 5932 5932 5933 5933 5934 5934 5934 5934 5934 5935 5936 5937 5936 5936 5935 5935 5934 5934 5933 5933 5933 5932 5931 5931 5931 5931
5868 5870 5872 5874 5875 5876 5877 5879 5881 5883 5886 5888 5890 5892 5893 5895 5896 5896 5897 5898 5898 5899 5900 5901 5902 5904 5905 5906 5907 5908 5910 5912 5913 5913 5913 5913 5914 5915 5916 5918 5919 5921 5923 5925 5926 5926 5926 5926 5926 5926 5926 5926 5927 5927 5927 5927 5927 5928 5928 5928 5928 5928 5928 5929 5929 5929 5929 5930 5931 5932 5932 5932 5931 5931 5931 5930 5929 5929 5929 5928 5928 5927 5926 5926 5926
5864 5865 5867 5868 5869 5870 5871 5873 5874 5876 5879 5882 5883 5885 5888 5889 5891 5892 5893 5893 5894 5894 5895 5896 5897 5899 5901 5901 5902 5903 5904 5906 5907 5908 5908 5909 5909 5909 5911 5912 5913 5915 5917 5919 5920 5921 5921 5921 5921 5922 5922 5922 5922 5922 5923 5923 5923 5923 5923 5923 5923 5923 5923 5923 5923 5924 5925 5926 5926 5927 5927 5926 5925 5925 5925 5924 5924 5924 5923 5923 5922 5922 5921 5921 5920
5859 5860 5861 5862 5864 5865 5866 5867 5868 5870 5872 5874 5876 5878 5881 5883 5885 5887 5888 5889 5889 5890 5890 5891 5892 5894 5896 5897 5897 5898 5899 5900 5901 5902 5903 5903 5904 5904 5905 5906 5907 5908 5910 5912 5913 5915 5915 5915 5916 5916 5916 5916 5916 5917 5917 5917 5917 5917 5917 5917 5917 5918 5918 5918 5918 5919 5920 5921 5921 5921 5921 5920 5919 5919 5919 5919 5919 5919 5918 5916 5916 5916 5916 5915 5915
5852 5853 5855 5856 5858 5859 5861 5862 5863 5864 5867 5868 5869 5871 5873 5875 5878 5880 5881 5883 5884 5885 5885 5885 5887 5888 5890 5891 5892 5893 5894 5894 5895 5896 5897 5897 5898 5899 5899 5899 5900 5901 5903 5905 5907 5908 5908 5909 5910 5910 5911 5911 5911 5911 5911 5911 5911 5911 5911 5911 5911 5912 5912 5912 5913 5913 5914 5915 5915 5915 5915 5914 5914 5915 5915 5914 5914 5915 5913 5911 5912 5913 5912 5910 5912
5844 5845 5846 5848 5850 5852 5854 5856 5857 5858 5860 5862 5863 5864 5866 5868 5870 5871 5873 5876 5878 5879 5880 5880 5881 5883 5884 5886 5887 5888 5889 5889 5890 5891 5891 5892 5893 5893 5893 5893 5895 5896 5898 5899 5901 5902 5903 5903 5904 5905 5906 5906 5906 5906 5906 5906 5906 5905 5905 5905 5905 5906 5906 5906 5907 5908 5909 5908 5908 5908 5909 5908 5909 5909 5910 5910 5911 5911 5909 5907 5908 5909 5908 5906 5908
5836 5837 5838 5840 5842 5844 5846 5848 5850 5851 5853 5854 5855 5857 5859 5860 5862 5863 5865 5867 5869 5872 5873 5874 5875 5876 5878 5879 5881 5882 5883 5884 5885 5886 5886 5887 5888 5889 5889 5889 5890 5891 5893 5894 5896 5896 5897 5898 5899 5899 5900 5900 5901 5901 5901 5901 5901 5901 5900 5900 5900 5901 5901 5901 5902 5902 5902 5901 5901 5902 5903 5902 5902 5903 5903 5904 5905 5905 5903 5902 5902 5903 5902 5901 5902
5828 5830 5831 5832 5833 5835 5838 5840 5842 5844 5845 5846 5848 5850 5852 5852 5854 5856 5857 5859 5861 5863 5865 5866 5868 5869 5871 5872 5874 5875 5876 5877 5878 5879 5880 5881 5882 5883 5884 5884 5884 5886 5887 5888 5890 5891 5891 5892 5893 5893 5894 5894 5895 5895 5895 5895 5895 5896 5896 5896 5896 5896 5896 5897 5896 5896 5895 5895 5895 5896 5896 5896 5896 5896 5896 5897 5898 5898 5897 5896 5896 5896 5896 5896 5897
5820 5821 5823 5824 5825 5827 5829 5831 5833 5835 5837 5839 5840 5842 5844 5845 5846 5848 5850 5852 5852 5853 5855 5857 5859 5861 5863 5864 5866 5867 5868 5870 5871 5872 5873 5874 5875 5876 5878 5878 5878 5880 5881 5882 5884 5885 5885 5886 5886 5887 5887 5888 5889 5889 5889 5889 5890 5890 5891 5891 5891 5891 5892 5891 5891 5889 5889 5890 5890 5890 5889 5889 5889 5890 5890 5891 5892 5892 5891 5890 5890 5889 5890 5890 5891
5812 5813 5815 5816 5817 5819 5821 5823 5825 5826 5828 5830 5832 5833 5835 5837 5838 5839 5841 5843 5844 5845 5846 5849 5850 5851 5853 5855 5857 5858 5860 5861 5863 5864 5865 5867 5868 5869 5871 5871 5872 5873 5875 5876 5878 5878 5878 5879 5880 5881 5881 5882 5883 5884 5883 5883 5884 5884 5885 5885 5886 5886 5886 5885 5884 5883 5884 5885 5884 5883 5883 5882 5883 5883 5884 5884 5885 5885 5885 5884 5883 5883 5883 5883 5884
5803 5805 5806 5808 5810 5812 5813 5815 5816 5818 5819 5820 5822 5823 5826 5828 5830 5831 5832 5834 5836 5837 5838 5839 5841 5842 5844 5846 5848 5849 5850 5852 5854 5856 5857 5858 5860 5861 5863 5864 5865 5866 5867 5868 5870 5871 5871 5872 5874 5874 5875 5875 5876 5877 5877 5877 5878 5878 5878 5879 5880 5880 5879 5878 5878 5878 5879 5878 5878 5877 5877 5876 5876 5877 5877 5877 5877 5878 5878 5877 5876 5875 5876 5876 5876
5795 5796 5797 5799 5801 5803 5805 5806 5807 5809 5810 5811 5813 5814 5816 5818 5820 5821 5823 5825 5827 5828 5829 5830 5831 5833 5835 5837 5839 5841 5842 5843 5844 5846 5848 5849 5850 5852 5853 5855 5856 5858 5859 5859 5861 5862 5863 5864 5865 5867 5867 5868 5869 5870 5870 5871 5871 5871 5872 5872 5873 5873 5873 5872 5872 5872 5872 5872 5871 5872 5871 5871 5871 5871 5871 5870 5870 5870 5871 5870 5868 5867 5868 5868 5868
5787 5788 5789 5791 5792 5794 5795 5796 5798 5799 5801 5802 5804 5805 5807 5808 5809 5811 5813 5815 5817 5819 5820 5821 5822 5823 5825 5828 5830 5831 5833 5834 5834 5835 5837 5839 5841 5842 5843 5845 5846 5848 5849 5850 5852 5853 5854 5855 5857 5858 5859 5860 5861 5862 5863 5864 5864 5865 5865 5866 5866 5867 5866 5866 5865 5866 5866 5866 5866 5866 5866 5865 5866 5866 5865 5865 5865 5864 5864 5863 5861 5860 5860 5860 5860
5779 5780 5781 5782 5783 5785 5786 5787 5788 5789 5791 5793 5794 5796 5798 5799 5800 5801 5803 5804 5806 5808 5810 5811 5812 5814 5816 5818 5820 5821 5823 5824 5825 5826 5826 5828 5830 5831 5833 5835 5836 5838 5839 5841 5842 5843 5844 5846 5847 5849 5850 5852 5853 5854 5854 5856 5857 5857 5858 5858 5859 5860 5860 5859 5859 5859 5859 5859 5860 5860 5860 5860 5860 5860 5859 5859 5860 5859 5858 5857 5855 5854 5853 5853 5853
5772 5773 5773 5774 5775 5776 5777 5778 5778 5780 5781 5783 5784 5786 5788 5789 5791 5793 5794 5795 5796 5798 5800 5801 5802 5804 5805 5808 5810 5811 5812 5814 5815 5816 5817 5817 5818 5820 5822 5824 5826 5828 5830 5831 5832 5834 5835 5836 5838 5839 5841 5843 5844 5845 5846 5847 5848 5849 5850 5850 5851 5852 5852 5852 5852 5852 5852 5853 5853 5854 5853 5853 5853 5853 5853 5853 5854 5854 5852 5851 5849 5848 5847 5847 5846
5764 5765 5766 5766 5767 5768 5768 5769 5769 5770 5771 5772 5774 5776 5777 5779 5780 5782 5784 5785 5786 5787 5789 5790 5792 5793 5795 5796 5798 5800 5802 5804 5805 5807 5808 5808 5809 5810 5811 5813 5815 5817 5820 5821 5822 5823 5825 5827 5828 5830 5832 5833 5835 5836 5837 5838 5839 5840 5841 5842 5843 5843 5844 5845 5845 5845 5845 5845 5846 5846 5846 5846 5846 5846 5846 5846 5848 5847 5846 5844 5843 5842 5842 5841 5840
5756 5757 5757 5758 5759 5760 5760 5760 5760 5761 5762 5763 5764 5765 5767 5769 5770 5771 5773 5774 5776 5777 5778 5779 5781 5783 5784 5785 5787 5789 5791 5793 5795 5796 5798 5799 5799 5800 5801 5803 5805 5806 5809 5811 5812 5813 5815 5817 5819 5820 5822 5823 5825 5827 5828 5829 5830 5831 5832 5834 5835 5835 5836 5836 5836 5836 5837 5838 5838 5839 5838 5839 5839 5839 5838 5839 5841 5840 5839 5838 5837 5836 5836 5835 5834
5748 5748 5749 5750 5751 5751 5752 5752 5752 5753 5753 5754 5754 5755 5756 5758 5759 5761 5762 5763 5765 5766 5767 5769 5770 5771 5772 5774 5776 5778 5780 5781 5783 5784 5786 5787 5788 5789 5791 5793 5794 5796 5798 5800 5801 5803 5805 5807 5808 5810 5811 5813 5815 5817 5819 5820 5821 5822 5823 5825 5826 5827 5828 5828 5828 5828 5828 5829 5830 5830 5831 5831 5831 5831 5831 5832 5832 5832 5831 5831 5830 5829 5828 5829 5828
5740 5741 5741 5741 5741 5742 5743 5743 5743 5744 5744 5744 5744 5745 5746 5747 5748 5749 5750 5752 5753 5754 5756 5757 5758 5759 5760 5762 5765 5767 5768 5769 5770 5772 5774 5775 5776 5778 5780 5781 5783 5786 5788 5790 5791 5793 5794 5796 5798 5799 5801 5803 5805 5807 5809 5810 5812 5813 5814 5815 5817 5819 5819 5819 5819 5819 5820 5821 5821 5822 5822 5823 5823 5823 5823 5824 5824 5824 5824 5824 5823 5823 5822 5821 5822
5732 5732 5732 5732 5732 5732 5733 5733 5733 5734 5734 5734 5735 5735 5735 5736 5737 5738 5739 5740 5741 5742 5744 5745 5746 5747 5748 5750 5752 5754 5756 5758 5759 5760 5761 5763 5765 5767 5768 5769 5771 5774 5777 5779 5781 5782 5784 5786 5787 5789 5790 5792 5794 5796 5798 5800 5802 5803 5805 5806 5807 5809 5810 5810 5811 5811 5811 5812 5813 5813 5814 5815 5815 5815 5816 5816 5815 5815 5816 5816 5816 5816 5815 5815 5815
5723 5723 5723 5723 5723 5723 5723 5723 5723 5723 5724 5724 5724 5724 5725 5725 5726 5726 5727 5728 5728 5729 5731 5732 5734 5735 5736 5737 5739 5741 5743 5745 5746 5747 5749 5751 5753 5754 5755 5756 5758 5761 5765 5767 5770 5772 5774 5776 5777 5778 5780 5782 5783 5785 5787 5790 5792 5793 5795 5796 5797 5799 5800 5801 5802 5802 5803 5804 5804 5805 5805 5806 5806 5807 5807 5807 5807 5807 5808 5808 5808 5808 5808 5808 5808
5714 5714 5714 5714 5714 5714 5713 5713 5713 5713 5713 5713 5714 5714 5714 5714 5714 5715 5715 5715 5716 5716 5717 5719 5721 5722 5723 5724 5725 5727 5729 5730 5732 5734 5737 5739 5740 5741 5742 5744 5746 5749 5752 5755 5758 5760 5763 5765 5767 5768 5769 5770 5772 5774 5776 5778 5780 5782 5784 5786 5787 5788 5790 5791 5792 5793 5794 5795 5795 5796 5796 5796 5797 5798 5798 5799 5799 5799 5800 5800 5801 5801 5801 5801 5801
5706 5706 5706 5706 5706 5705 5705 5705 5704 5704 5704 5704 5704 5704 5703 5703 5703 5703 5703 5703 5703 5704 5705 5706 5707 5709 5710 5711 5712 5713 5715 5716 5717 5719 5722 5724 5727 5729 5731 5733 5734 5736 5739 5742 5745 5747 5750 5754 5756 5757 5758 5760 5761 5764 5765 5767 5769 5771 5773 5775 5776 5778 5779 5781 5782 5783 5784 5785 5786 5787 5787 5787 5788 5788 5789 5790 5790 5791 5792 5793 5793 5793 5793 5793 5793
5698 5698 5698 5698 5697 5697 5696 5696 5695 5695 5695 5694 5694 5694 5693 5692 5692 5691 5691 5691 5691 5692 5692 5693 5694 5695 5696 5697 5698 5700 5701 5702 5703 5704 5707 5710 5713 5716 5718 5720 5722 5724 5726 5729 5731 5734 5737 5741 5744 5745 5747 5749 5751 5752 5753 5755 5758 5760 5762 5764 5766 5768 5769 5770 5772 5773 5774 5775 5776 5777 5778 5778 5779 5779 5779 5780 5781 5782 5783 5784 5784 5784 5784 5785 5785
5691 5691 5690 5690 5689 5689 5688 5687 5686 5686 5685 5685 5684 5684 5683 5682 5681 5680 5680 5679 5679 5680 5681 5682 5682 5682 5683 5684 5685 5686 5687 5688 5688 5690 5692 5695 5698 5702 5705 5707 5709 5711 5713 5715 5717 5720 5723 5727 5730 5732 5735 5738 5740 5741 5742 5744 5746 5749 5751 5753 5755 5757 5759 5760 5761 5762 5764 5765 5767 5768 5768 5769 5769 5769 5770 5771 5772 5772 5773 5774 5775 5775 5776 5776 5776
5683 5683 5682 5681 5681 5680 5679 5679 5678 5676 5675 5675 5674 5673 5673 5672 5671 5670 5669 5669 5668 5668 5669 5670 5670 5670 5671 5671 5672 5672 5673 5674 5675 5676 5678 5681 5684 5688 5691 5694 5695 5697 5699 5702 5703 5706 5709 5712 5715 5718 5722 5725 5728 5729 5731 5733 5735 5737 5740 5742 5744 5746 5748 5749 5750 5752 5753 5755 5756 5758 5758 5759 5760 5760 5760 5761 5762 5763 5764 5765 5765 5766 5767 5767 5768
5675 5674 5674 5673 5672 5671 5671 5670 5669 5667 5666 5665 5664 5663 5662 5662 5661 5660 5659 5658 5657 5657 5657 5658 5658 5658 5659 5659 5660 5660 5661 5661 5662 5664 5666 5668 5671 5674 5677 5679 5681 5683 5686 5688 5690 5692 5695 5698 5701 5704 5708 5712 5715 5717 5719 5721 5723 5725 5728 5730 5732 5735 5737 5738 5739 5741 5742 5744 5746 5747 5748 5749 5750 5750 5751 5751 5752 5753 5754 5755 5755 5756 5757 5757 5758
5667 5667 5666 5665 5664 5663 5662 5661 5660 5658 5657 5655 5654 5653 5652 5651 5650 5649 5648 5647 5646 5646 5646 5646 5646 5646 5647 5648 5648 5649 5649 5649 5650 5652 5653 5655 5658 5660 5663 5666 5668 5670 5672 5675 5677 5679 5682 5685 5687 5690 5694 5697 5701 5704 5706 5708 5711 5713 5716 5718 5720 5723 5725 5727 5728 5730 5731 5733 5735 5736 5737 5738 5739 5740 5741 5741 5742 5743 5744 5744 5745 5746 5747 5747 5748
5660 5659 5658 5657 5656 5655 5653 5652 5651 5649 5648 5646 5645 5643 5642 5641 5639 5638 5637 5636 5636 5635 5635 5635 5635 5635 5636 5636 5637 5637 5638 5638 5639 5640 5642 5644 5646 5648 5651 5653 5655 5657 5660 5662 5664 5667 5669 5671 5674 5677 5680 5683 5687 5690 5692 5695 5698 5701 5703 5706 5708 5710 5712 5715 5717 5718 5720 5722 5724 5725 5726 5727 5728 5729 5730 5731 5732 5732 5733 5734 5735 5736 5736 5737 5738